M0ZPG Weather Reports


Display with metric or nautical units.
time (UTC)temp
F
wind
direction
speed
MPH
gust
MPH
rain 1hr
in
rain 24hr
in
rain mn
in
humidity
%
barometer
mb
20260509221803 55 58 1.0 7.0 0.00 0.00 0.00 63 1016.6
20260509221118 56 61 1.0 3.0 0.00 0.00 0.00 61 1016.5
20260509220003 56 78 1.0 3.0 0.00 0.00 0.00 59 1016.7
20260509215403 56 76 1.0 4.0 0.00 0.00 0.00 59 1016.7
20260509214506 56 85 1.0 6.0 0.00 0.00 0.00 59 1016.7
20260509213816 56 81 2.0 5.0 0.00 0.00 0.00 58 1016.7
20260509212016 57 88 2.0 7.0 0.00 0.00 0.00 57 1016.5
20260509210003 57 76 1.0 8.0 0.00 0.00 0.00 55 1016.2
20260509205403 57 70 1.0 8.0 0.00 0.00 0.00 55 1016.3
20260509204508 58 87 2.0 5.0 0.00 0.00 0.00 54 1016.3
20260509202703 58 86 2.0 7.0 0.00 0.00 0.00 53 1016.3
20260509201805 58 79 2.0 9.0 0.00 0.00 0.00 51 1016.2
20260509200905 58 95 2.0 6.0 0.00 0.00 0.00 50 1016.2
20260509200005 59 89 2.0 6.0 0.00 0.00 0.00 49 1016.2
20260509195405 59 74 2.0 8.0 0.00 0.00 0.00 49 1016.2
20260509194504 59 92 2.0 8.0 0.00 0.00 0.00 48 1016.0
20260509193812 59 79 2.0 7.0 0.00 0.00 0.00 47 1016.0
20260509192703 60 81 3.0 8.0 0.00 0.00 0.00 47 1015.9
20260509191115 60 88 2.0 8.0 0.00 0.00 0.00 48 1015.5
20260509190006 61 83 3.0 11.0 0.00 0.00 0.00 47 1015.5
20260509185405 61 88 4.0 11.0 0.00 0.00 0.00 48 1015.6
20260509184503 61 89 4.0 11.0 0.00 0.00 0.00 48 1015.6
20260509183606 62 90 3.0 12.0 0.00 0.00 0.00 48 1015.5
20260509182915 62 88 3.0 11.0 0.00 0.00 0.00 48 1015.6
20260509181803 62 87 3.0 12.0 0.00 0.00 0.00 48 1015.6
20260509180906 62 84 4.0 12.0 0.00 0.00 0.00 47 1015.6
20260509180004 63 95 2.0 12.0 0.00 0.00 0.00 46 1015.5
20260509175614 63 95 2.0 9.0 0.00 0.00 0.00 46 1015.4
20260509174506 63 91 5.0 11.0 0.00 0.00 0.00 45 1015.3
20260509173814 64 94 4.0 11.0 0.00 0.00 0.00 45 1015.3
20260509172703 65 92 5.0 10.0 0.00 0.00 0.00 45 1015.3
20260509171805 65 82 4.0 11.0 0.00 0.00 0.00 45 1015.3
20260509170906 66 88 4.0 10.0 0.00 0.00 0.00 44 1015.4
20260509170005 66 80 3.0 10.0 0.00 0.00 0.00 41 1015.4
20260509164505 67 89 3.0 10.0 0.00 0.00 0.00 40 1015.5
20260509163603 67 85 4.0 11.0 0.00 0.00 0.00 41 1015.4
20260509162917 68 91 3.0 11.0 0.00 0.00 0.00 41 1015.4
20260509161805 68 87 3.0 10.0 0.00 0.00 0.00 43 1015.4
20260509160904 68 89 3.0 10.0 0.00 0.00 0.00 43 1015.5
20260509160004 68 94 4.0 13.0 0.00 0.00 0.00 42 1015.7
20260509154503 69 97 3.0 10.0 0.00 0.00 0.00 41 1015.7
20260509153606 69 95 4.0 11.0 0.00 0.00 0.00 40 1015.7
20260509152703 70 94 2.0 9.0 0.00 0.00 0.00 41 1015.7
20260509151805 69 79 3.0 9.0 0.00 0.00 0.00 40 1015.8
20260509150903 69 91 3.0 10.0 0.00 0.00 0.00 40 1015.7
20260509150005 70 74 3.0 10.0 0.00 0.00 0.00 39 1015.6
20260509145405 69 69 2.0 10.0 0.00 0.00 0.00 40 1015.6
20260509144504 69 79 3.0 11.0 0.00 0.00 0.00 41 1015.5
20260509143816 69 84 3.0 10.0 0.00 0.00 0.00 42 1015.6
20260509142705 70 93 3.0 8.0 0.00 0.00 0.00 41 1015.2
20260509141803 69 95 4.0 16.0 0.00 0.00 0.00 42 1015.2
20260509140904 70 88 3.0 10.0 0.00 0.00 0.00 42 1015.4
20260509140006 70 83 4.0 10.0 0.00 0.00 0.00 41 1015.5
20260509135405 70 67 3.0 10.0 0.00 0.00 0.00 39 1015.5
20260509134505 70 87 4.0 11.0 0.00 0.00 0.00 40 1015.6
20260509133603 70 86 3.0 14.0 0.00 0.00 0.00 41 1015.5
20260509132704 70 92 3.0 10.0 0.00 0.00 0.00 45 1015.5
20260509131806 70 84 3.0 9.0 0.00 0.00 0.00 43 1015.5
20260509130906 70 85 3.0 9.0 0.00 0.00 0.00 44 1015.6
20260509130004 70 74 4.0 11.0 0.00 0.00 0.00 43 1015.7
20260509125403 70 70 3.0 9.0 0.00 0.00 0.00 44 1015.7
20260509124505 69 73 3.0 12.0 0.00 0.00 0.00 42 1015.9
20260509123603 69 75 3.0 12.0 0.00 0.00 0.00 45 1016.0
20260509122914 69 68 3.0 10.0 0.00 0.00 0.00 45 1016.0
20260509121805 69 82 3.0 12.0 0.00 0.00 0.00 45 1016.0
20260509121114 69 64 2.0 12.0 0.00 0.00 0.00 45 1016.1
20260509120005 68 76 4.0 12.0 0.00 0.00 0.00 46 1016.2
20260509115404 68 72 3.0 12.0 0.00 0.00 0.00 47 1016.2
20260509114505 68 34 2.0 9.0 0.00 0.00 0.00 48 1016.2
20260509113603 67 70 3.0 10.0 0.00 0.00 0.00 50 1016.4
20260509112703 68 65 3.0 10.0 0.00 0.00 0.00 50 1016.4
20260509112017 68 65 3.0 11.0 0.00 0.00 0.00 50 1016.5
20260509111115 68 39 2.0 8.0 0.00 0.00 0.00 52 1016.5
20260509110005 67 75 3.0 10.0 0.00 0.00 0.00 52 1016.4
20260509105406 67 56 3.0 10.0 0.00 0.00 0.00 52 1016.6
20260509104716 67 73 2.0 9.0 0.00 0.00 0.00 53 1017.0
20260509103605 66 75 3.0 11.0 0.00 0.00 0.00 54 1017.0
20260509102705 66 89 4.0 11.0 0.00 0.00 0.00 55 1017.1
20260509101803 66 79 3.0 9.0 0.00 0.00 0.00 57 1017.2
20260509100904 65 84 3.0 8.0 0.00 0.00 0.00 58 1017.1
20260509100006 65 84 3.0 9.0 0.00 0.00 0.00 59 1017.2
20260509095403 64 82 3.0 8.0 0.00 0.00 0.00 60 1017.3
20260509094505 64 77 3.0 10.0 0.00 0.00 0.00 61 1017.2
20260509093819 64 86 3.0 10.0 0.00 0.00 0.00 61 1017.3
20260509092703 63 91 3.0 9.0 0.00 0.00 0.00 62 1017.4
20260509092013 63 107 2.0 8.0 0.00 0.00 0.00 64 1017.4
20260509090905 63 89 2.0 9.0 0.00 0.00 0.00 65 1017.3
20260509090005 62 76 2.0 8.0 0.00 0.00 0.00 66 1017.5
20260509085403 62 76 2.0 8.0 0.00 0.00 0.00 66 1017.4
20260509084504 62 55 2.0 6.0 0.00 0.00 0.00 67 1017.2
20260509083605 61 46 1.0 5.0 0.00 0.00 0.00 70 1017.3
20260509082705 60 13 2.0 6.0 0.00 0.00 0.00 70 1017.2
20260509081805 60 43 2.0 7.0 0.00 0.00 0.00 71 1017.3
20260509080905 60 37 2.0 7.0 0.00 0.00 0.00 73 1017.3
20260509080010 59 74 2.0 5.0 0.00 0.00 0.00 74 1017.5
20260509075403 59 82 2.0 4.0 0.00 0.00 0.00 74 1017.6
20260509074505 58 86 2.0 8.0 0.00 0.00 0.00 76 1017.4
20260509073604 57 91 2.0 7.0 0.00 0.00 0.00 77 1017.4
20260509072704 56 62 1.0 4.0 0.00 0.00 0.00 79 1017.2
20260509071805 55 84 1.0 6.0 0.00 0.00 0.00 81 1017.1
20260509070903 54 77 2.0 7.0 0.00 0.00 0.00 83 1017.0
20260509070003 54 88 1.0 6.0 0.00 0.00 0.00 84 1017.0
20260509065403 53 83 1.0 6.0 0.00 0.00 0.00 85 1017.0
20260509064718 53 78 2.0 6.0 0.00 0.00 0.00 85 1016.8
20260509063603 52 70 1.0 6.0 0.00 0.00 0.00 86 1016.8
20260509062703 52 76 1.0 4.0 0.00 0.00 0.00 86 1016.8
20260509061803 51 76 1.0 4.0 0.00 0.00 0.00 88 1016.9
20260509060903 51 77 1.0 3.0 0.00 0.00 0.00 89 1016.9
20260509060008 50 78 1.0 5.0 0.00 0.00 0.00 90 1016.8
20260509055405 49 71 1.0 5.0 0.00 0.00 0.00 91 1016.9
20260509054504 49 66 1.0 3.0 0.00 0.00 0.00 91 1016.9
20260509053816 48 66 0.0 2.0 0.00 0.00 0.00 92 1016.9
20260509052703 48 66 0.0 3.0 0.00 0.00 0.00 92 1016.9
20260509051803 48 66 0.0 3.0 0.00 0.00 0.00 92 1016.8
20260509050903 47 66 0.0 3.0 0.00 0.00 0.00 92 1016.7
20260509050005 47 65 0.0 1.0 0.00 0.00 0.00 92 1016.7
20260509045403 47 65 0.0 1.0 0.00 0.00 0.00 92 1016.8
20260509044503 46 65 0.0 2.0 0.00 0.00 0.00 91 1016.8
20260509043604 46 0 0.0 0.0 0.00 0.00 0.00 91 1016.7
20260509042706 46 66 0.0 1.0 0.00 0.00 0.00 91 1016.7
20260509041805 46 65 0.0 1.0 0.00 0.00 0.00 90 1016.8
20260509040905 47 0 0.0 0.0 0.00 0.00 0.00 90 1016.8
20260509040216 47 0 0.0 0.0 0.00 0.00 0.00 91 1016.8
20260509035613 47 0 0.0 0.0 0.00 0.00 0.00 90 1016.8
20260509034505 47 66 0.0 1.0 0.00 0.00 0.00 90 1016.8
20260509033604 47 66 0.0 1.0 0.00 0.00 0.00 90 1016.8
20260509032915 47 65 0.0 1.0 0.00 0.00 0.00 90 1016.8
20260509031806 47 0 0.0 0.0 0.00 0.00 0.00 89 1016.8
20260509030903 48 65 0.0 1.0 0.00 0.00 0.00 89 1016.9
20260509030003 48 65 0.0 1.0 0.00 0.00 0.00 89 1016.9
20260509025403 48 0 0.0 0.0 0.00 0.00 0.00 89 1016.9
20260509024503 48 65 0.0 1.0 0.00 0.00 0.00 89 1016.9
20260509023818 48 65 0.0 1.0 0.00 0.00 0.00 88 1017.0
20260509022703 48 65 0.0 1.0 0.00 0.00 0.00 88 1017.1
20260509021805 48 65 0.0 1.0 0.00 0.00 0.00 88 1017.1
20260509020903 48 65 0.0 2.0 0.00 0.00 0.00 88 1016.9
20260509020009 48 66 0.0 1.0 0.00 0.00 0.00 87 1017.0
20260509015403 48 66 0.0 1.0 0.00 0.00 0.00 87 1017.0
20260509014505 49 0 0.0 0.0 0.00 0.00 0.00 86 1017.0
20260509013603 49 65 0.0 1.0 0.00 0.00 0.00 85 1017.0
20260509012916 49 65 0.0 1.0 0.00 0.00 0.00 85 1017.1
20260509011804 50 65 0.0 3.0 0.00 0.00 0.00 85 1017.1
20260509010905 50 64 0.0 3.0 0.00 0.00 0.00 85 1017.2
20260509010005 50 64 0.0 3.0 0.00 0.00 0.00 84 1017.1
20260509005405 50 64 0.0 1.0 0.00 0.00 0.00 84 1017.2
20260509004504 50 65 0.0 1.0 0.00 0.00 0.00 83 1017.3
20260509003605 50 64 0.0 3.0 0.00 0.00 0.00 83 1017.2
20260509002706 50 71 1.0 4.0 0.00 0.00 0.00 83 1017.1
20260509002014 50 81 1.0 4.0 0.00 0.00 0.00 83 1017.1
20260509001116 50 82 1.0 2.0 0.00 0.00 0.00 82 1017.2
20260509000003 51 82 0.0 3.0 0.00 0.00 0.00 82 1017.2
20260508235405 51 82 0.0 3.0 0.00 0.00 0.00 82 1017.2
20260508234718 51 82 0.0 2.0 0.00 0.00 0.00 81 1017.3
20260508233603 51 82 0.0 2.0 0.00 0.00 0.00 80 1017.2
20260508232705 52 82 0.0 2.0 0.00 0.00 0.00 80 1017.2
20260508231803 52 82 1.0 3.0 0.00 0.00 0.00 80 1017.3
20260508230905 52 82 1.0 4.0 0.00 0.00 0.00 80 1017.3
20260508230214 52 82 0.0 2.0 0.00 0.00 0.00 79 1017.2
20260508225403 52 81 1.0 3.0 0.00 0.00 0.00 79 1017.2
20260508224503 52 81 0.0 3.0 0.00 0.00 0.00 78 1017.2
20260508223605 52 81 0.0 1.0 0.00 0.00 0.00 77 1017.3
20260508222704 53 81 0.0 2.0 0.00 0.00 0.00 77 1017.4